www.pogodaiklimat.ru

Погода и климат >> Архив погоды >> Словакия >> Братислава


АРХИВ ПОГОДЫ в Братиславе

Время (UTC), дата Ветер
(напр.,м/с)
 
Видим.   Явления Облачность Т
(С)
Тd
(С)
f
(%)
Тe
(С)
Тes
(С)
Комфортность P
(гПа)
Po
(гПа)
Тmin
(С)
Tmax
(С)
R
(мм)
R24
(мм)
S
(см)
01 13.09 30 км 1/0
[Ac lent Ci fib]
+17.8 +11.4 66 1030.1 1014.1
02 13.09 30 км 5/0
[Ac lent]
+18.3 +11.8 66 1029.8 1013.9
03 13.09 нст 1 30 км 6/0 2000 м
[Ac trans]
+18.1 +12.1 68 +19 +19 тепло 1029.8 1013.8
04 13.09 З 4 30 км 5/0
[Ac trans]
+17.6 +12.1 70 +17 +17 тепло 1030.0 1014.0
05 13.09 З 3 40 км 5/1 1500 м
[Sc Ac cast]
+16.9 +12.2 74 +17 +17 тепло 1030.1 1014.1
06 13.09 нст 1 40 км 4/1 1500 м
[Sc Ac cast]
+17.7 +13.2 75 +19 +20 тепло 1030.2 1014.2 +15.3
07 13.09 40 км 3/1 1500 м
[Sc diur, vesp Ac lent]
+20.3 +13.3 64 1030.1 1014.3
08 13.09 СЗ 4 40 км 1/1 1500 м
[Sc diur, vesp Ac lent]
+22.1 +13.2 57 +25 +28 комфорт 1030.1 1014.4
09 13.09 СЗ 5 40 км 8/8 1500 м
[Sc diur, vesp]
+21.9 +13.3 58 +25 +26 комфорт 1030.0 1014.3
10 13.09 З 4 45 км 3/3 1080 м
[Cu Sc Ac lent]
+23.2 +14.0 56 +27 +31 душно 1029.5 1013.8
11 13.09 СЗ 5 50 км 5/4 1260 м
[Cu Sc Ac lent]
+23.6 +14.1 55 +26 +29 жарко 1029.2 1013.6
12 13.09 СЗ 5 50 км 6/6 1380 м
[Cu Sc]
+24.0 +14.2 54 +26 +29 жарко 1029.0 1013.4
13 13.09 СЗ 3 50 км 5/5 1440 м
[Cu Sc Ac lent]
+25.8 +14.3 49 +28 +31 жарко 1028.5 1013.0
14 13.09 СЗ 4 50 км 5/5 1500 м
[Cu Sc]
+24.9 +13.2 48 +27 +29 жарко 1028.2 1012.6
15 13.09 СЗ 5 50 км 4/4 1500 м
[Cu Sc]
+25.7 +12.9 45 +28 +28 жарко 1027.7 1012.2
16 13.09 СЗ 4 50 км 5/1 1500 м
[Cu hum Ac lent]
+24.4 +13.0 49 +26 +27 жарко 1028.0 1012.4
17 13.09 СЗ 2 50 км 9/0
[Ac und]
+22.9 +13.4 55 +26 +26 жарко 1028.2 1012.5
18 13.09 СЗ 3 50 км 9/0 2000 м
[Ac und]
+23.0 +13.2 54 +26 +26 жарко 1028.4 1012.7 +26.1
19 13.09 С 4 50 км 9/0
[Ac As]
+22.5 +13.6 57 +26 +26 жарко 1028.9 1013.2
20 13.09 СЗ 3 50 км 9/0
[Ac trans]
+21.9 +13.8 60 +25 +25 комфорт 1028.9 1013.2
21 13.09 СЗ 4 50 км 9/0 2000 м
[Ac trans]
+21.1 +13.8 63 +24 +24 комфорт 1029.4 1013.6
22 13.09 СЗ 3 50 км 4/0
[Ac trans Ci fib]
+20.4 +13.4 64 +23 +23 комфорт 1029.5 1013.7
23 13.09 50 км 1/0
[Ac lent Ci fib]
+18.7 +13.1 70 1029.4 1013.5
00 14.09 нст 1 50 км 1/0 2000 м
[Ac lent Ci fib]
+19.1 +13.1 68 +21 +21 комфорт 1029.6 1013.7
01 14.09 С 4 50 км 1/0
[Ac lent Ci fib]
+19.9 +12.9 64 +22 +22 комфорт 1029.4 1013.5
02 14.09 СЗ 2 50 км 3/0
[Ac lent Ci fib]
+17.2 +13.1 77 +18 +18 тепло 1029.6 1013.6
03 14.09 С 2 50 км 6/0
[Ac trans]
+17.4 +13.3 77 +18 +18 тепло 1029.7 1013.7
04 14.09 20 км 8/0
[Ac trans Ci fib]
+17.0 +12.8 76 1030.1 1014.1
05 14.09 С 2 40 км 5/0
[Ac lent Ci fib]
+16.3 +12.1 76 +16 +16 тепло 1030.7 1014.6
06 14.09 СВ 2 40 км 5/0
[Ac lent Ci fib]
+17.7 +11.7 68 +18 +19 тепло 1031.3 1015.3 +16.2
07 14.09 С 4 40 км 3/0
[Ac lent Ci fib]
+19.3 +11.6 61 +20 +22 тепло 1031.5 1015.6
08 14.09 СВ 4 40 км 4/1 960 м
[Cu hum Ac lent Ci fib]
+19.8 +11.6 59 +21 +24 комфорт 1031.8 1015.9
09 14.09 С 3 40 км 4/1 960 м
[Cu hum Ac lent Ci fib]
+20.4 +11.9 58 +23 +28 комфорт 1031.6 1015.7
10 14.09 С 5 40 км 4/1 1080 м
[Cu hum Ac lent Ci fib]
+20.2 +10.6 54 +22 +26 комфорт 1031.7 1015.8
11 14.09 С 4 40 км 8/0
[Ac lent Ci fib]
+21.2 +11.0 52 +23 +28 комфорт 1031.0 1015.2
12 14.09 СЗ 4 40 км 8/0
[Ac lent Ci fib]
+21.3 +9.9 48 +23 +28 комфорт 1030.7 1014.9
13 14.09 СЗ 4 40 км 8/0
[Ci fib]
+21.6 +10.2 48 +23 +28 комфорт 1030.3 1014.5
14 14.09 СЗ 5 40 км 5/0
[Ac lent Ci fib]
+21.6 +9.2 45 +23 +25 комфорт 1030.0 1014.2
15 14.09 С 6 40 км 3/0
[Ci fib]
+21.2 +9.8 48 +23 +24 комфорт 1029.4 1013.6
16 14.09 СВ 5 40 км 3/0
[Ci fib]
+20.3 +8.3 46 +21 +22 комфорт 1029.0 1013.1
17 14.09 штиль 0 45 км 1/0
[Ac lent Ci fib]
+18.1 +8.4 53 +18 +18 тепло 1029.4 1013.4
18 14.09 С 3 45 км 4/0
[Ci sp]
+16.5 +8.2 58 +16 +16 по сезону 1029.6 1013.5 +22.0
19 14.09 45 км 5/0
[Ci sp]
+14.5 +8.7 68 1029.9 1013.7
20 14.09 40 км 1/0
[Ac lent Ci sp]
+13.7 +7.9 68 1030.2 1014.0
21 14.09 С 2 40 км 1/0
[Ci fib]
+14.2 +7.0 62 +14 +14 по сезону 1030.2 1014.0
22 14.09 40 км ясно +12.2 +7.1 71 1030.5 1014.2
23 14.09 40 км ясно +12.3 +6.6 68 1029.7 1013.4
00 15.09 В 2 40 км ясно +10.7 +6.5 75 +9 +9 прохладно 1029.9 1013.5
01 15.09 З 2 40 км ясно +11.0 +6.6 74 +10 +10 по сезону 1029.3 1012.9
02 15.09 СВ 1 40 км 1/0
[Ci fib]
+9.1 +6.4 83 +9 +9 по сезону 1029.1 1012.6
03 15.09 С 1 40 км 1/0
[Ci fib]
+9.3 +6.4 82 +9 +9 прохладно 1029.1 1012.6
04 15.09 45 км 1/0
[Ci fib]
+8.4 +6.0 85 1028.8 1012.3
05 15.09 СВ 1 45 км 1/0
[Ac lent Ci fib]
+8.1 +5.9 86 +7 +7 прохладно 1028.8 1012.3
06 15.09 СВ 1 45 км 1/0
[Ac lent Ci fib]
+10.8 +7.3 79 +11 +12 по сезону 1028.8 1012.4 +7.3
07 15.09 45 км 3/1 1440 м
[Sc Ac lent Ci fib]
+13.0 +7.9 71 1028.8 1012.5
08 15.09 40 км 3/3 1500 м
[Sc Ci fib]
+14.9 +8.8 67 1028.1 1012.0
09 15.09 нст 1 40 км 5/4 1140 м
[Sc Ac lent Ci fib]
+17.2 +9.6 61 +18 +24 тепло 1027.5 1011.5
10 15.09 40 км 4/3 1140 м
[Sc Ac lent Ci fib]
+18.8 +8.5 51 1026.8 1010.9
11 15.09 40 км 4/0
[Ac lent Ci fib]
+20.7 +9.0 47 1025.8 1010.0
12 15.09 Ю 3 40 км 4/0
[Ci fib]
+21.6 +10.8 50 +23 +31 комфорт 1025.0 1009.3
13 15.09 ЮВ 3 40 км 3/0
[Ci fib]
+22.7 +11.8 50 +25 +31 комфорт 1023.9 1008.3
14 15.09 Ю 2 40 км 3/0
[Ci fib]
+23.1 +11.8 49 +26 +30 жарко 1023.0 1007.4
15 15.09 Ю 2 40 км 3/0
[Ci fib]
+23.7 +12.1 48 +25 +28 комфорт 1022.0 1006.5
16 15.09 ЮВ 3 40 км 1/0
[Ci fib]
+23.3 +12.9 52 +26 +27 жарко 1021.4 1005.8
17 15.09 ЮВ 1 40 км 1/0
[Ci fib]
+22.0 +12.8 56 +25 +25 комфорт 1020.8 1005.2
18 15.09 С 2 40 км 1/0
[Ci fib]
+18.7 +12.7 68 +20 +20 тепло 1021.1 1005.3 +23.8
19 15.09 С 3 40 км 1/0
[Ci fib]
+16.6 +13.1 80 +16 +16 тепло 1021.2 1005.3
20 15.09 С 2 40 км 1/0
[Ci fib]
+15.6 +12.5 82 +15 +15 тепло 1021.2 1005.2
21 15.09 С 2 40 км 1/0
[Ci fib]
+14.4 +12.3 87 +14 +14 по сезону 1020.9 1004.9
22 15.09 С 1 40 км 1/0
[Ci fib]
+14.5 +12.2 86 +15 +15 тепло 1020.8 1004.8
23 15.09 С 2 30 км 1/0
[Ci fib]
+14.1 +12.0 87 +14 +14 тепло 1020.8 1004.8
00 16.09 нст 1 30 км 1/0
[Ci fib]
+13.4 +11.8 90 +14 +14 тепло 1020.5 1004.4
01 16.09 СЗ 1 30 км 1/0
[Ci fib]
+13.4 +12.0 91 +14 +14 тепло 1020.3 1004.2
02 16.09 штиль 0 30 км 3/0
[Ci fib]
+12.4 +11.0 91 +12 +12 по сезону 1020.1 1004.0
03 16.09 СВ 1 30 км 3/0
[Ci fib]
+12.0 +10.9 93 +12 +12 по сезону 1019.8 1003.7
04 16.09 С 1 30 км местами туман поземный 3/0
[Ci fib]
+11.2 +10.4 95 +11 +11 по сезону 1019.6 1003.4
05 16.09 штиль 0 20 км местами туман поземный 3/0
[Ac lent Ci fib]
+11.1 +10.0 93 +10 +10 по сезону 1019.6 1003.4
06 16.09 штиль 0 20 км 3/0
[Ac lent Ci fib]
+14.7 +12.4 86 +14 +15 тепло 1019.6 1003.6 +10.7
07 16.09 20 км 4/1 1500 м
[Sc Ci fib]
+16.5 +12.7 78 1019.6 1003.7
08 16.09 20 км 3/1 1500 м
[Sc Ci fib]
+19.3 +13.9 71 1019.2 1003.5
09 16.09 нст 2 25 км 6/1 1500 м
[Sc Ci fib]
+22.8 +14.4 59 +26 +33 жарко 1018.6 1003.1
10 16.09 З 3 25 км 6/1 1500 м
[Cu Sc Ci fib]
+24.6 +13.2 49 +27 +33 жарко 1018.1 1002.7
11 16.09 СЗ 6 25 км 8/3 1500 м
[Cu Sc Ac lent Ci sp]
+24.6 +11.6 44 +26 +28 жарко 1017.9 1002.5
12 16.09 СЗ 5 25 км 8/1 1500 м
[Cu Sc Ac lent Ci sp]
+25.2 +9.9 38 +26 +29 жарко 1017.0 1001.6
13 16.09 СЗ 4 25 км 9/1 1500 м
[Cu Sc Ac lent Ci sp]
+25.2 +9.9 38 +26 +29 жарко 1016.5 1001.1
14 16.09 СЗ 3 25 км 8/4 1500 м
[Cu Sc Ac lent Ci sp]
+25.2 +9.5 37 +26 +27 жарко 1015.9 1000.5
15 16.09 нст 2 25 км 8/3 1500 м
[Cu Sc Ac lent Ci sp]
+26.6 +10.3 36 +27 +28 жарко 1015.4 1000.1
16 16.09 25 км 9/3 1500 м
[Cu Sc Ac lent Cs]
+25.6 +11.8 42 1015.1 999.8
17 16.09 30 км зарница 9/1 1500 м
[Cb cap Ac As Ci sp]
+23.8 +11.5 46 1014.8 999.4
18 16.09 нст 1 30 км зарница 9/1 1500 м
[Cb cap Ac As]
+21.7 +12.3 55 +24 +24 комфорт 1015.0 999.5 +27.0
19 16.09 30 км 9/0
[Ac As]
+20.3 +13.0 63 1014.9 999.3
20 16.09 С 1 30 км 9/0
[Ac As Ci sp]
+19.1 +13.7 71 +21 +21 комфорт 1015.2 999.5
21 16.09 С 1 30 км 9/0
[Ac As]
+18.4 +13.3 72 +20 +20 тепло 1015.5 999.8
22 16.09 30 км 9/0
[Ac As]
+18.5 +13.2 71 1015.3 999.6
23 16.09 ЮЗ 2 30 км 9/0
[Ac As]
+18.3 +13.8 75 +19 +19 тепло 1014.8 999.1
00 17.09 нст 1 30 км 9/0
[Ac As]
+19.4 +12.9 66 +22 +22 комфорт 1015.0 999.3
01 17.09 З 4 35 км 9/0
[Ac As]
+19.7 +12.2 62 +21 +21 комфорт 1014.6 999.0
02 17.09 З 3 40 км 9/0
[Ac As]
+19.4 +12.2 63 +21 +21 комфорт 1014.2 998.5
03 17.09 З 3 40 км 9/0
[Ac As]
+18.5 +12.0 66 +19 +19 тепло 1014.3 998.6
04 17.09 З 3 40 км 9/0
[Ac As]
+18.2 +12.2 68 +19 +19 тепло 1014.3 998.6
05 17.09 З 2 40 км 9/0
[Ac As Ci fib]
+17.7 +12.6 72 +18 +18 тепло 1014.7 999.0
06 17.09 З 1 30 км 8/0 2000 м
[Ac lent Ci fib]
+18.1 +12.6 70 +19 +20 тепло 1015.0 999.3 +17.6
07 17.09 СЗ 4 40 км 8/4 720 м
[Cu Sc Ac lent Ci fib]
+18.7 +13.1 70 +19 +20 тепло 1015.5 999.8
08 17.09 СЗ 5 30 км 9/6 750 м
[Cu Sc Ac As]
+18.2 +13.1 72 +18 +19 тепло 1016.1 1000.4
09 17.09 С 5 30 км 9/8 570 м
[Cu Sc Ac As]
+17.2 +13.5 79 +17 +17 по сезону 1016.4 1000.6
10 17.09 СЗ 3 30 км в посл. час дождь 9/8 500 м
[Cu Sc Ac As]
+16.7 +12.5 76 +16 +17 холодно 1016.5 1000.7
11 17.09 СЗ 4 30 км 9/8 1260 м
[Sc Ac As]
+17.3 +12.0 71 +17 +18 прохладно 1015.9 1000.1
12 17.09 СЗ 4 30 км {дождь} 9/8 1500 м
[Sc Ac As]
+17.5 +12.4 72 +17 +18 прохладно 1015.3 999.5 0.0
13 17.09 СЗ 4 30 км 9/8 1500 м
[Sc Ac As]
+18.3 +11.4 64 +18 +19 по сезону 1014.8 999.1
14 17.09 З 3 30 км 9/8 1500 м
[Sc Ac As]
+17.9 +11.2 65 +18 +19 по сезону 1014.3 998.6
15 17.09 СЗ 3 30 км 6/4 1500 м
[Cu Sc Ac lent Ci fib]
+19.0 +11.3 61 +20 +21 тепло 1014.0 998.3
16 17.09 З 4 30 км 6/3 1500 м
[Sc Ac lent Ci fib]
+18.4 +11.2 63 +19 +19 тепло 1013.4 997.7
17 17.09 З 2 35 км 5/1 1500 м
[Sc Ac lent Ci fib]
+18.0 +12.0 68 +19 +19 тепло 1013.4 997.7
18 17.09 нст 1 35 км 5/3 1200 м
[Cu Sc Ac lent Ci fib]
+16.1 +12.3 78 +17 +17 тепло 1014.2 998.4 +19.3 0.0
19 17.09 35 км 6/3 1140 м
[Cu Sc Ac lent Ci fib]
+16.6 +12.4 76 1014.5 998.7
20 17.09 ЮЗ 2 40 км 6/5 1200 м
[Cu Sc Ci fib]
+15.2 +12.0 81 +15 +15 тепло 1015.2 999.3
21 17.09 СЗ 4 40 км 6/4 1200 м
[Cu Sc Ci fib]
+16.1 +11.5 74 +15 +15 по сезону 1015.6 999.7
22 17.09 З 3 40 км 8/3 1200 м
[Cu Sc Ac lent Ci fib]
+15.3 +10.9 75 +15 +15 тепло 1016.2 1000.3
23 17.09 СЗ 6 40 км 8/3 1500 м
[Sc Ac lent Ci fib]
+15.9 +7.4 57 +15 +15 тепло 1016.8 1000.9
00 18.09 СЗ 6 40 км 9/6 1500 м
[Sc Ci sp]
+15.0 +6.0 55 +13 +13 по сезону 1017.5 1001.5
01 18.09 СЗ 5 40 км 9/3 1500 м
[Sc Ac lent]
+14.4 +5.0 53 +13 +13 тепло 1017.7 1001.7
02 18.09 СЗ 7 40 км 6/0
[Ac lent]
+14.0 +4.3 52 +12 +12 по сезону 1018.3 1002.3
03 18.09 СЗ 6 40 км 3/0 2000 м
[Ac lent Ci fib]
+12.7 +4.2 56 +10 +10 по сезону 1019.5 1003.4
04 18.09 СЗ 5 40 км 3/1 900 м
[Cu hum Ac lent Ci fib]
+11.9 +3.7 57 +10 +10 по сезону 1020.5 1004.3
05 18.09 З 4 40 км 4/1 300 м
[Cu hum Ac lent Ci fib]
+11.0 +3.6 60 +9 +9 по сезону 1021.7 1005.4
06 18.09 З 4 40 км 3/1 900 м
[Cu hum Ci fib]
+11.5 +3.0 56 +10 +10 по сезону 1022.1 1005.9 +10.9
07 18.09 СЗ 6 45 км 4/3 1200 м
[Cu Sc Ci fib]
+12.8 +2.9 51 +11 +11 прохладно 1023.1 1006.9
08 18.09 СЗ 7 45 км 3/3 1320 м
[Cu hum Ci fib]
+13.2 +1.8 46 +11 +12 прохладно 1023.6 1007.4
09 18.09 СЗ 8 45 км 3/3 1380 м
[Cu hum Ci fib]
+14.1 +2.4 45 +12 +13 прохладно 1023.6 1007.5
10 18.09 СЗ 7 50 км 1/1 1410 м
[Cu hum Ci fib]
+14.8 +1.0 39 +13 +15 очень
холодно
1023.6 1007.5
11 18.09 СЗ 8 50 км 3/1 1470 м
[Cu hum Ci fib]
+16.0 +1.3 37 +14 +16 холодно 1023.2 1007.2
12 18.09 СЗ 6 50 км 1/1 1500 м
[Cu hum Ci fib]
+16.7 +0.4 33 +16 +19 прохладно 1022.9 1006.9
13 18.09 СЗ 5 50 км 1/1 1500 м
[Cu hum Ci fib]
+17.5 +1.1 33 +17 +20 по сезону 1022.5 1006.6
14 18.09 СЗ 6 50 км 1/1 1500 м
[Cu hum Ci fib]
+17.4 -0.3 30 +17 +18 по сезону 1022.1 1006.2
15 18.09 СЗ 6 50 км 1/1 1500 м
[Cu hum Ci fib]
+17.4 -1.8 27 +17 +17 по сезону 1021.9 1006.0
16 18.09 СЗ 5 50 км 1/1 1500 м
[Sc diur, vesp Ci fib]
+16.9 -1.2 29 +16 +16 по сезону 1022.0 1006.0
17 18.09 СЗ 4 50 км 3/0
[Ac lent Cs]
+15.5 +0.1 35 +15 +15 по сезону 1022.1 1006.1
18 18.09 СЗ 4 50 км 1/0
[Ci fib]
+13.0 +1.7 46 +12 +12 прохладно 1023.1 1006.9 +17.8
19 18.09 ЮВ 1 40 км 1/0
[Ci fib]
+10.5 +2.4 57 +10 +10 по сезону 1023.9 1007.6
20 18.09 З 1 40 км 1/0
[Ci fib]
+10.7 +2.3 56 +11 +11 по сезону 1024.1 1007.8
21 18.09 З 1 40 км 6/0 2000 м
[Ac lent Ci fib]
+9.9 +2.3 59 +10 +10 прохладно 1024.4 1008.0
22 18.09 ЮЗ 2 40 км 8/0
[Ac As Ci fib]
+11.0 +5.1 67 +10 +10 по сезону 1024.3 1008.0
23 18.09 З 1 40 км 9/0
[Ac As]
+11.6 +3.1 56 +12 +12 по сезону 1024.3 1008.0
00 19.09 З 3 40 км 8/0
[Ac trans Ci fib]
+11.6 +2.9 55 +10 +10 по сезону 1024.3 1008.0
01 19.09 З 4 40 км 8/0
[Ac trans Ci fib]
+11.7 +2.7 54 +10 +10 по сезону 1024.1 1007.8
02 19.09 З 3 40 км 8/0
[Ac lent Ci fib]
+10.8 +2.9 58 +9 +9 по сезону 1024.1 1007.8
03 19.09 З 3 40 км 6/0
[Ac lent Ci fib]
+11.2 +3.3 58 +10 +10 по сезону 1024.2 1007.9
04 19.09 З 3 40 км 6/0
[Ac lent Ci fib]
+9.5 +3.3 65 +7 +7 по сезону 1024.6 1008.2
05 19.09 СЗ 3 40 км 5/0
[Ac lent Ci fib]
+10.2 +3.7 64 +8 +8 по сезону 1025.1 1008.7
06 19.09 З 4 40 км 4/0
[Ac lent Ci fib]
+11.2 +4.0 61 +9 +10 по сезону 1025.3 1009.0 +9.4
07 19.09 СВ 4 40 км 4/0
[Ac lent Ci fib]
+12.5 +4.2 57 +11 +12 прохладно 1025.7 1009.5
08 19.09 З 4 40 км 4/0
[Ac lent Ci fib]
+13.6 +4.8 55 +12 +15 прохладно 1026.3 1010.1
09 19.09 СЗ 4 40 км 3/1 1260 м
[Cu hum Ac lent Ci sp]
+14.1 +3.3 48 +13 +17 прохладно 1026.5 1010.3
10 19.09 СЗ 6 40 км 4/4 1470 м
[Cu hum Ci sp]
+14.3 +2.2 44 +13 +15 очень
холодно
1026.5 1010.3
11 19.09 СЗ 7 40 км 5/5 1500 м
[Cu med, cong Ci fib]
+14.7 +1.3 40 +13 +14 очень
холодно
1026.1 1010.0
12 19.09 З 7 40 км 4/4 1500 м
[Cu med, cong Ci fib]
+16.1 +0.3 34 +15 +16 холодно 1025.8 1009.8
13 19.09 З 5 45 км 5/5 1500 м
[Cu med, cong Ci fib]
+16.9 +1.4 35 +16 +18 по сезону 1025.7 1009.7
14 19.09 СЗ 6 50 км 4/4 1500 м
[Cu med, cong Ci fib]
+16.6 +0.7 34 +16 +17 по сезону 1025.4 1009.4
15 19.09 СЗ 7 50 км 4/3 1500 м
[Cu med, cong Ci fib]
+16.2 +1.1 36 +15 +15 прохладно 1025.5 1009.5
16 19.09 СЗ 6 50 км 8/3 1500 м
[Sc diur, vesp Ci fib]
+14.6 +2.2 43 +13 +13 по сезону 1025.7 1009.6
17 19.09 СЗ 5 50 км 6/1 1500 м
[Sc diur, vesp Ci fib]
+13.6 +2.2 46 +12 +12 прохладно 1026.2 1010.0
18 19.09 СЗ 4 45 км 8/0
[Cs]
+12.1 +2.0 50 +10 +10 холодно 1027.0 1010.7 +17.0
19 19.09 СЗ 4 40 км 3/0
[Ci fib]
+11.9 +1.8 50 +10 +10 по сезону 1027.4 1011.1
20 19.09 СЗ 3 40 км 5/0
[Ci fib]
+10.8 +1.4 52 +9 +9 прохладно 1028.4 1012.0
21 19.09 СЗ 4 40 км 5/0
[Ci fib]
+10.8 +1.6 53 +9 +9 прохладно 1028.4 1012.0
22 19.09 СЗ 3 40 км 5/0
[Ci fib]
+10.4 +1.5 54 +9 +9 по сезону 1028.6 1012.2
23 19.09 З 2 40 км 3/0
[Ci fib]
+9.3 +1.7 59 +8 +8 по сезону 1028.6 1012.1
00 20.09 З 2 40 км 3/0
[Ci fib]
+9.2 +1.8 60 +8 +8 прохладно 1028.7 1012.2

 

Местоположение метеостанции Братислава (Словакия): широта 48.20 долгота 17.20 высота над уровнем моря 134 м.

В архиве по умолчанию представлена погода в Братиславе за последнюю неделю. Архивные данные за месяц целиком и за предыдущие месяцы, начиная с января 2011 года, Вы можете получить, выбрав интересующий диапазон дат из раскрывающегося списка и нажав кнопку "Ввод!".


*Определитесь, кто Вы:
робот инопланетянин человек

Внимание! Время в таблицах - всемирное. Для получения местного времени необходимо прибавить поправку, которая равна 1 ч.

Смотрите также архив погоды в соседних городах и на ближайших метеорологических станциях:

Погода в Малом Яровнику (Словакия) (7 км)
Погода в Братислава-Колибе (Словакия) (7 км)
Погода в Малацки (Словакия) (23 км)
Погода в Зверндорф-Маршег (Австрия) (31 км)
Погода в Мошонмадьяроваре (Венгрия) (36 км)
Погода в Нойзидль-ам-Зе (Австрия) (38 км)
Погода в Нойзидль-ам-Зе (Австрия) (39 км)
Погода в Ясловске Богунице (Словакия) (47 км)
Погода в Грос-Энцерсдорфе (Австрия) (47 км)
Погода в Вене аэропорт (Австрия) (48 км)

Пояснения к столбцам:

Ветер - указаны скорость ветра в м/с - средняя за 10 мин, порывы в срок и между сроками (в фигурных скобках) и направление, откуда дует ветер: С - северный, СВ - северо-восточный, В - восточный, ЮВ - юго-восточный, Ю - южный, ЮЗ - юго-западный, З - западный, СЗ - северо-западный.
Видимость - горизонтальная дальность видимости в метрах или километрах. При видимости от 1 до 10 км при отсутствии осадков обычно наблюдается дымка, при ухудшении видимости до 1 км и менее - туман. В сухую погоду видимость может ухудшаться дымом, пылью или мглою.
Явления - указаны атмосферные явления, наблюдавшиеся в срок или в последний час перед сроком; фигурными скобками обозначены явления, наблюдавшиеся между сроками (за 1-3 часа до срока); квадратными скобками обозначены град или гололедные отложения с указанием их диаметра в мм.
Облачность - указаны через наклонную черту общая и нижняя облачность в баллах и высота нижней границы облаков в метрах; квадратными скобками обозначены формы облаков: Ci - перистые, Cs - перисто-слоистые, Cc - перисто-кучевые, Ac - высококучевые, As - высокослоистые, Sc - слоисто-кучевые, Ns - слоисто-дождевые, Cu - кучевые, Cb - кучево-дождевые. Подробнее классификацию облаков см. в Атласе облаков (PDF).
T - Температура воздуха - температура, измеренная на высоте 2 м над землей.
Td - Температура точки росы - температура, при понижении до которой содержащийся в воздухе водяной пар достигнет насыщения.
f - Относительная влажность воздуха - влажноcть воздуха, измеренная на высоте 2 м над землей.
Te - Эффективная температура - температура, которую ощущает одетый по сезону человек в тени. Характеристика душности погоды. При расчете учитывается влияние влажности воздуха и скорости ветра на теплоощущения человека.
Tes - Эффективная температура на солнце - температура, которую ощущает человек, с поправкой на солнечный нагрев. Характеристика знойности погоды. Зависит от высоты солнца над горизонтом, облачности и скорости ветра. Ночью, в пасмурную погоду, а также при ветре 12 м/с и более поправка равна нулю.
P - Атмосферное давление - приведенное к уровню моря атмосферное давление.
Po - Атмосферное давление - измеренное на уровне метеостанции атмосферное давление.
Tmin - Минимальная температура - минимум температуры воздуха на высоте 2 м над землей.
Tmax - Максимальная температура - максимум температуры воздуха на высоте 2 м над землей.
R - Количество осадков - Количество выпавших осадков за период времени, мм. При наведении курсора мыши на число - период времени, за который выпало указанное количество осадков.
R24 - Количество осадков - Количество выпавших осадков за 24 часа, мм.
S - Снежный покров - Высота снежного покрова, см. При наведении курсора мыши на число - состояние снежного покрова и степень покрытия местности в баллах.